[[{"header":{"parameterUnit":"m.s-1","parameterCategory":1,"la1":30.2991,"la2":30.254,"lo1":-89.0895,"lo2":-89.0444,"dy":0.0017,"dx":0.0017,"nx":28,"ny":28,"refTime":"2023-11-03T03:00:00:Z","depth":0,"parameterNumber":2,"parameterNumberName":"U-component_of_WINDS"},"data":[0,0,0,0,0,0,0,0,0,0,0,0,0,0,0,0,0,0,0,0,0,0,0,0,0,0,0,0,0,0,0,0,0,0,0,0,0,0,0,0,0,0,0,0,0,0,0,0,0,0,0,0,0,0,0,0,0,0,-2.4993,-2.4993,0,-2.5021,-2.5022,-2.5022,-2.4921,-2.4918,-2.4915,-2.4912,-2.494,-2.4944,-2.4947,0,0,0,0,0,0,0,0,0,0,0,0,0,-2.4851,-2.4854,-2.4993,-2.4993,-2.4994,-2.5021,-2.5022,-2.5022,-2.4921,-2.4917,-2.4914,-2.491,-2.4939,-2.4943,-2.4947,0,0,0,0,0,0,0,0,0,0,0,0,0,-2.4899,-2.4855,-2.4993,-2.4947,-2.4943,-2.5021,-2.5022,-2.5022,-2.4922,-2.4917,-2.4913,-2.4909,-2.4937,-2.4943,-2.4948,-2.5072,0,0,-2.4964,-2.4967,0,0,0,0,0,0,0,0,-2.4896,-2.4904,-2.4953,-2.495,-2.4946,-2.4963,-2.4982,-2.5039,-2.4923,-2.493,-2.4912,-2.4906,-2.4951,-2.4955,-2.497,-2.5073,-2.5074,-2.4965,-2.4968,-2.497,-2.4972,0,0,0,0,0,0,0,-2.4893,-2.4903,-2.5004,-2.4954,-2.495,-2.4924,-2.4926,-2.4992,-2.4966,-2.4929,-2.4922,-2.4926,-2.4948,-2.4966,-2.497,-2.5075,-2.4965,-2.4969,-2.4973,-2.4975,-2.528,-2.5284,0,0,0,0,0,0,-2.4896,-2.49,-2.5003,-2.5005,-2.4909,-2.493,-2.4932,-2.4962,-2.4965,-2.4961,-2.493,-2.4922,-2.4959,-2.4964,-2.4971,-2.5115,-2.497,-2.4975,-2.4978,-2.5275,-2.5281,-2.5286,0,0,0,0,0,0,-2.4893,-2.4906,-2.5002,-2.4951,-2.4961,-2.4938,-2.4972,-2.4965,-2.4982,-2.4966,-2.496,-2.4953,-2.4955,-2.4963,-2.5047,-2.5115,-2.4978,-2.4983,-2.5269,-2.5277,-2.5283,-2.5406,0,0,0,0,0,0,-2.489,-2.4906,-2.4953,-2.4953,-2.4964,-2.5079,-2.4976,-2.4969,-2.4991,-2.498,-2.4985,-2.4982,-2.4952,-2.504,-2.5053,-2.512,-2.4987,-2.5263,-2.5273,-2.5281,-2.5396,-2.5417,-2.5435,0,0,0,0,0,-2.4885,-2.4987,-2.4956,-2.4969,-2.5023,-2.5083,-2.5089,-2.5054,-2.4997,-2.5044,-2.5034,-2.4982,-2.5106,-2.5049,-2.5063,-2.5133,-2.5259,-2.527,-2.528,-2.5388,-2.5413,-2.5434,0,0,0,0,0,0,-2.4995,-2.4986,-2.4952,-2.5056,-2.5071,-2.5066,-2.5124,-2.5082,-2.5113,-2.5101,-2.5055,-2.5057,-2.5149,-2.5149,-2.5087,-2.5252,-2.5172,-2.5187,-2.5249,-2.5273,-2.5292,-2.529,-2.4991,0,0,0,0,0,-2.5032,-2.5082,-2.5071,-2.5164,-2.5173,-2.5148,-2.5173,-2.5144,-2.5157,-2.5163,-2.5158,-2.5174,-2.5215,-2.5244,-2.5282,-2.5396,-2.5395,-2.545,-2.547,-2.5486,-2.5498,-2.5557,-2.5582,-2.5322,-2.5322,-2.5322,0,0,-2.5108,-2.5109,-2.5143,-2.5186,-2.5194,-2.5247,-2.5154,-2.5213,-2.5251,-2.5172,-2.5251,-2.5248,-2.5262,-2.5361,-2.5404,-2.5364,-2.557,-2.55,-2.5513,-2.5517,-2.5571,-2.5596,-2.5618,-2.533,-2.5328,-2.5327,0,0,-2.5273,-2.5279,-2.5357,-2.5367,-2.5381,-2.5363,-2.5382,-2.5383,-2.5378,-2.5457,-2.5398,-2.5443,-2.5517,-2.5528,-2.5544,-2.5713,-2.5666,-2.5727,-2.5828,-2.5886,-2.5906,-2.5924,-2.5984,-2.6006,-2.574,-2.574,-2.574,0,-2.5366,-2.5443,-2.5403,-2.5466,-2.5486,-2.5417,-2.5495,-2.5507,-2.5533,-2.5548,-2.5502,-2.5593,-2.5597,-2.5698,-2.5739,-2.5754,-2.5774,-2.5726,-2.5907,-2.5924,-2.594,-2.5997,-2.6019,-2.5747,-2.5747,-2.5746,-2.5745,0,-2.5556,-2.561,-2.5671,-2.5697,-2.5725,-2.5796,-2.5766,-2.5798,-2.5767,-2.5754,-2.5834,-2.5837,-2.5874,-2.5895,-2.5866,-2.5992,-2.5966,-2.5915,-2.5833,-2.5973,-2.6025,-2.6047,-2.5758,-2.5755,-2.5753,-2.5751,0,0,-2.5791,-2.5794,-2.5817,-2.5828,-2.5838,-2.5879,-2.5946,-2.5982,-2.601,-2.603,-2.6085,-2.6149,-2.6101,-2.6119,-2.609,-2.6141,-2.6274,-2.6083,-2.6082,-2.6118,-2.6412,-2.6451,-2.6476,-2.6243,-2.6247,-2.625,-2.6411,0,-2.5953,-2.6068,-2.6034,-2.6149,-2.6198,-2.6133,-2.6191,-2.6204,-2.6193,-2.6233,-2.6221,-2.6267,-2.6201,-2.6211,-2.6259,-2.6248,-2.6332,-2.6236,-2.6293,-2.6295,-2.6291,-2.6503,-2.6544,-2.6696,-2.6431,-2.6434,-2.6437,0,-2.6157,-2.6184,-2.6305,-2.6306,-2.6325,-2.6379,-2.6409,-2.6448,-2.646,-2.6448,-2.6469,-2.6429,-2.6494,-2.6413,-2.6502,-2.6437,-2.6458,-2.6456,-2.6461,-2.6465,-2.6374,-2.6512,-2.6743,-2.6766,-2.6469,-2.6466,-2.6464,0,-2.6315,-2.6383,-2.6464,-2.6475,-2.6478,-2.6517,-2.652,-2.6528,-2.6552,-2.6578,-2.6593,-2.6626,-2.6645,-2.6672,-2.6641,-2.6585,-2.6735,-2.6651,-2.6726,-2.6727,-2.676,-2.6759,-2.6998,-2.6776,-2.6775,-2.6775,-2.6775,0,-2.6499,-2.6575,-2.6535,-2.6585,-2.6668,-2.6627,-2.6711,-2.6706,-2.6714,-2.6761,-2.6707,-2.6752,-2.671,-2.6751,-2.6728,-2.6805,-2.6814,-2.6806,-2.6799,-2.681,-2.6811,-2.6823,-2.6811,-2.6781,-2.678,-2.6779,-2.6777,0,-2.669,-2.6666,-2.675,-2.6746,-2.6747,-2.6808,-2.6805,-2.685,-2.6836,-2.6896,-2.6908,-2.6885,-2.6931,-2.6904,-2.6951,-2.6935,-2.7035,-2.7013,-2.7031,-2.7025,-2.7101,-2.7094,-2.7356,-2.7387,-2.7146,-2.7149,-2.7151,0,-2.6808,-2.6865,-2.6868,-2.6896,-2.6902,-2.6948,-2.6972,-2.6934,-2.6961,-2.6979,-2.7023,-2.7064,-2.7094,-2.7171,-2.7158,-2.7193,-2.7172,-2.7261,-2.7177,-2.7187,-2.7172,-2.7169,-2.7174,-2.7278,-2.7281,-2.7283,-2.7285,0,-2.7021,-2.7006,-2.7043,-2.7076,-2.7106,-2.713,-2.7149,-2.7175,-2.7137,-2.7171,-2.7217,-2.7241,-2.7288,-2.733,-2.7359,-2.7362,-2.7318,-2.7312,-2.7331,-2.7343,-2.735,-2.7346,-2.7076,-2.7306,-2.7304,-2.7302,-2.7301,-2.73,-2.7178,-2.7225,-2.7234,-2.7277,-2.7288,-2.7307,-2.7349,-2.734,-2.7378,-2.7414,-2.739,-2.7444,-2.7454,-2.7489,-2.7498,-2.7539,-2.7503,-2.7531,-2.7538,-2.7545,-2.7555,-2.7345,-2.7545,-2.7544,-2.7543,-2.7543,-2.7542,0,-2.7386,-2.7389,-2.7429,-2.7458,-2.7491,-2.7447,-2.7466,-2.7496,-2.7545,-2.7558,-2.759,-2.7643,-2.7682,-2.7673,-2.7709,-2.7744,-2.7724,-2.7754,-2.7751,-2.7752,-2.7586,-2.7566,-2.7769,-2.7769,-2.7769,-2.7769,-2.7769,-2.7769,-2.7499,-2.7576,-2.7563,-2.7645,-2.7646,-2.77,-2.7714,-2.7732,-2.7742,-2.7803,-2.7836,-2.783,-2.7834,-2.7869,-2.7903,-2.7899,-2.7914,-2.7952,-2.7941,-2.7786,-2.7763,-2.7742,-2.7722,-2.7956,-2.7956,-2.8102,-2.8104,-2.8105]},{"header":{"parameterUnit":"m.s-1","parameterCategory":1,"la1":30.2991,"la2":30.254,"lo1":-89.0895,"lo2":-89.0444,"dy":0.0017,"dx":0.0017,"nx":28,"ny":28,"refTime":"2023-11-03T03:00:00:Z","depth":0,"parameterNumber":3,"parameterNumberName":"V-component_of_WINDS"},"data":[0,0,0,0,0,0,0,0,0,0,0,0,0,0,0,0,0,0,0,0,0,0,0,0,0,0,0,0,0,0,0,0,0,0,0,0,0,0,0,0,0,0,0,0,0,0,0,0,0,0,0,0,0,0,0,0,0,0,-3.5365,-3.5366,0,-3.5437,-3.5438,-3.5439,-3.5409,-3.5408,-3.5406,-3.5404,-3.5474,-3.5477,-3.5481,0,0,0,0,0,0,0,0,0,0,0,0,0,-3.5197,-3.52,-3.5365,-3.5366,-3.5367,-3.5437,-3.5438,-3.5439,-3.541,-3.5408,-3.5406,-3.5404,-3.5473,-3.5477,-3.5481,0,0,0,0,0,0,0,0,0,0,0,0,0,-3.5269,-3.5201,-3.5365,-3.5361,-3.5361,-3.5437,-3.5438,-3.5439,-3.541,-3.5408,-3.5405,-3.5403,-3.5471,-3.5476,-3.5481,-3.5564,0,0,-3.5497,-3.5499,0,0,0,0,0,0,0,0,-3.5265,-3.5276,-3.5361,-3.5361,-3.5362,-3.5412,-3.5404,-3.5481,-3.5411,-3.5392,-3.5404,-3.5401,-3.5455,-3.5461,-3.548,-3.5567,-3.557,-3.5498,-3.5501,-3.5503,-3.5504,0,0,0,0,0,0,0,-3.526,-3.5272,-3.5394,-3.5362,-3.5363,-3.5354,-3.5361,-3.5419,-3.5436,-3.5393,-3.5391,-3.54,-3.5455,-3.5475,-3.5482,-3.5571,-3.5497,-3.5502,-3.5505,-3.5507,-3.5728,-3.573,0,0,0,0,0,0,-3.5256,-3.5268,-3.5391,-3.5396,-3.5306,-3.5359,-3.5367,-3.5398,-3.5436,-3.5439,-3.5402,-3.5399,-3.5468,-3.5476,-3.5484,-3.5582,-3.5503,-3.5508,-3.5511,-3.5725,-3.5728,-3.5731,0,0,0,0,0,0,-3.5252,-3.5267,-3.5388,-3.5332,-3.5346,-3.5364,-3.54,-3.5401,-3.5422,-3.5443,-3.5445,-3.542,-3.5466,-3.5477,-3.5544,-3.5584,-3.551,-3.5515,-3.5722,-3.5726,-3.573,-3.5779,0,0,0,0,0,0,-3.5248,-3.5266,-3.5299,-3.5333,-3.535,-3.5449,-3.5402,-3.5404,-3.5431,-3.5427,-3.5461,-3.5464,-3.5465,-3.5537,-3.5549,-3.559,-3.5519,-3.5718,-3.5724,-3.5728,-3.5774,-3.5785,-3.5794,0,0,0,0,0,-3.5242,-3.531,-3.5301,-3.5316,-3.5392,-3.5452,-3.5461,-3.5463,-3.5435,-3.5467,-3.548,-3.5463,-3.5578,-3.5544,-3.5558,-3.56,-3.5716,-3.5722,-3.5728,-3.577,-3.5783,-3.5793,0,0,0,0,0,0,-3.5279,-3.5314,-3.5305,-3.5386,-3.5416,-3.5447,-3.5488,-3.5476,-3.5514,-3.5508,-3.5507,-3.5515,-3.5584,-3.5599,-3.5561,-3.5681,-3.5642,-3.5651,-3.5669,-3.5681,-3.5691,-3.5685,-3.5523,0,0,0,0,0,-3.5297,-3.5345,-3.5372,-3.5441,-3.5457,-3.547,-3.5496,-3.5494,-3.5525,-3.5537,-3.5556,-3.5585,-3.5627,-3.5655,-3.5696,-3.5776,-3.5782,-3.5812,-3.5822,-3.583,-3.5837,-3.5879,-3.5892,-3.5752,-3.5752,-3.5752,0,0,-3.5334,-3.5359,-3.5389,-3.5449,-3.5472,-3.552,-3.5481,-3.5533,-3.5567,-3.5545,-3.561,-3.5624,-3.5656,-3.573,-3.5764,-3.5745,-3.5878,-3.5838,-3.5844,-3.5847,-3.5887,-3.59,-3.5912,-3.5756,-3.5755,-3.5755,0,0,-3.5425,-3.545,-3.5509,-3.5534,-3.557,-3.5578,-3.5592,-3.5624,-3.5633,-3.5699,-3.5682,-3.5722,-3.5796,-3.5819,-3.5841,-3.594,-3.5924,-3.5953,-3.6003,-3.6044,-3.6055,-3.6065,-3.6098,-3.611,-3.5961,-3.5961,-3.5961,0,-3.5466,-3.5539,-3.5541,-3.5594,-3.562,-3.5603,-3.5662,-3.5685,-3.5732,-3.5749,-3.5727,-3.5819,-3.5839,-3.5918,-3.5942,-3.596,-3.5975,-3.5949,-3.6053,-3.6063,-3.6072,-3.6104,-3.6117,-3.5964,-3.5964,-3.5963,-3.5963,0,-3.5587,-3.5637,-3.568,-3.5727,-3.5758,-3.5814,-3.5822,-3.5853,-3.5848,-3.5858,-3.5923,-3.5948,-3.5992,-3.601,-3.6006,-3.6088,-3.6074,-3.6053,-3.6014,-3.6089,-3.6119,-3.6131,-3.5968,-3.5967,-3.5966,-3.5966,0,0,-3.5704,-3.5751,-3.5766,-3.5787,-3.5825,-3.5863,-3.5917,-3.5961,-3.5987,-3.6019,-3.6063,-3.6126,-3.6106,-3.613,-3.6128,-3.6164,-3.6239,-3.6138,-3.6139,-3.6155,-3.6328,-3.6342,-3.6357,-3.6229,-3.6232,-3.6233,-3.6324,0,-3.5797,-3.5894,-3.5896,-3.5984,-3.6029,-3.6013,-3.6059,-3.6087,-3.6097,-3.6135,-3.6146,-3.619,-3.6161,-3.6176,-3.6211,-3.6222,-3.6273,-3.6216,-3.6268,-3.627,-3.6259,-3.6373,-3.6389,-3.6474,-3.6336,-3.6338,-3.634,0,-3.5919,-3.5956,-3.6049,-3.6079,-3.6098,-3.614,-3.618,-3.6218,-3.6248,-3.6252,-3.6279,-3.6272,-3.6325,-3.6284,-3.6356,-3.6317,-3.6338,-3.6347,-3.635,-3.6354,-3.6309,-3.6378,-3.6501,-3.6513,-3.6359,-3.6357,-3.6356,0,-3.5993,-3.6066,-3.6131,-3.6149,-3.6186,-3.6216,-3.6232,-3.626,-3.6286,-3.632,-3.6337,-3.6377,-3.6398,-3.6428,-3.6431,-3.6401,-3.6502,-3.6462,-3.6506,-3.6506,-3.6527,-3.6525,-3.6653,-3.6543,-3.6543,-3.6542,-3.6542,0,-3.6096,-3.6153,-3.6164,-3.6204,-3.6266,-3.6268,-3.6329,-3.6343,-3.6367,-3.6407,-3.6395,-3.6433,-3.6435,-3.6473,-3.6475,-3.6533,-3.6543,-3.6547,-3.6546,-3.6547,-3.6546,-3.656,-3.6554,-3.6546,-3.6545,-3.6544,-3.6544,0,-3.6189,-3.62,-3.6269,-3.6298,-3.6307,-3.6351,-3.6376,-3.6412,-3.6421,-3.6472,-3.6484,-3.6497,-3.6541,-3.6547,-3.6598,-3.66,-3.6669,-3.6663,-3.6659,-3.6658,-3.67,-3.6696,-3.6841,-3.6859,-3.6738,-3.6739,-3.674,0,-3.6254,-3.6298,-3.6332,-3.6359,-3.6377,-3.6421,-3.6447,-3.645,-3.6477,-3.6514,-3.6546,-3.6589,-3.6623,-3.6694,-3.6707,-3.6745,-3.6739,-3.6787,-3.6745,-3.6744,-3.6738,-3.6735,-3.6738,-3.6795,-3.6797,-3.6798,-3.6799,0,-3.6367,-3.637,-3.641,-3.6451,-3.6483,-3.6516,-3.6546,-3.6568,-3.6574,-3.6605,-3.6651,-3.6678,-3.673,-3.6772,-3.681,-3.6825,-3.6812,-3.6812,-3.6824,-3.6824,-3.682,-3.6821,-3.668,-3.6808,-3.6807,-3.6807,-3.6806,-3.6806,-3.6447,-3.6484,-3.6514,-3.6558,-3.6581,-3.661,-3.6645,-3.6659,-3.6697,-3.6741,-3.6739,-3.6789,-3.6815,-3.6865,-3.6883,-3.692,-3.6904,-3.6921,-3.6926,-3.693,-3.6933,-3.6815,-3.6927,-3.6927,-3.6926,-3.6926,-3.6926,0,-3.6558,-3.6577,-3.6617,-3.666,-3.6694,-3.6681,-3.6713,-3.6742,-3.6786,-3.6813,-3.6847,-3.6898,-3.6939,-3.6955,-3.6994,-3.7021,-3.7016,-3.7031,-3.7028,-3.7031,-3.6946,-3.6931,-3.7034,-3.7034,-3.7034,-3.7034,-3.7034,-3.7034,-3.662,-3.6682,-3.6688,-3.676,-3.6777,-3.6827,-3.6846,-3.6871,-3.6892,-3.6951,-3.6985,-3.6995,-3.7017,-3.7058,-3.7093,-3.7097,-3.7111,-3.7128,-3.7129,-3.7049,-3.7038,-3.7027,-3.7013,-3.7132,-3.7132,-3.7211,-3.7212,-3.7213]}]]